sat.trackr.live / text

‹ back to catalog

STARLINK-37494

NORAD 68905 · 2026-097L

PAYLOAD ACTIVE UNKNOWN

§ Identity

Operator
Country
US
Launch date
2026-04-30
Launch site
AFWTR
Launch vehicle
Mass (kg)
RCS (m²)

Purposes: comms

External: N2YO · Heavens-Above · Gunter

§ Orbital elements

Epoch: 2026-09-19T23:50:40.657632Z

Period
93.90 min
Inclination
97.2843°
Eccentricity
0.0001551
Mean motion
15.33476804 rev/d
Perigee alt
464.4 km
Apogee alt
466.5 km
Semi-major
6,843.6 km
B*
6.9236e-4
RAAN
97.1341°
Arg perigee
83.8914°
Mean anomaly
276.2505°
Rev number
2,201

§ Raw data

STARLINK-374941 68905U 26097L   26262.99352613  .00022366  00000+0  69236-3 0  99952 68905  97.2843  97.1341 0001551  83.8914 276.2505 15.33476804 22016

JSON: /api/v1/satellites/68905 · /tle

For live sub-satellite position, see the globe view (requires WebGL).

§ Visibility from observer

Set your observer location to see the next 7 days of passes ≥ 10°. The values pass through the URL so the page stays shareable.

No JS? Fill the form by hand. The geolocation button needs JavaScript.